Weather History for KCRG - August, 2012

Change the Weather History Date:

Thursday, August 23, 2012

  Actual Average Record
Temperature  
Mean Temperature 78 °F -  
Max Temperature 84 °F 87 °F 98 °F (2014)
Min Temperature 72 °F 71 °F 69 °F (1996)
Cooling Degree Days 14    
Growing Degree Days 28 (Base 50)    
Moisture  
Dew Point 71 °F    
Average Humidity 81    
Maximum Humidity 94    
Minimum Humidity 61    
Precipitation  
Precipitation 0.00 in - - ()
Sea Level Pressure  
Sea Level Pressure 30.07 in    
Wind  
Wind Speed 4 mph (WSW)    
Max Wind Speed 17 mph    
Max Gust Speed 23 mph    
Visibility 10 miles    
Events      
Averages and records for this station are not official NWS values.
T = Trace of Precipitation, MM = Missing Value Source: NWS Daily Summary

Daily Weather History Graph

Daily Weather History Graph

Search for Another Location

Airport or City:

Trip Planner

Search our weather history database for the weather conditions in past years. The results will help you decide how hot, cold, wet, or windy it might be!

Date:

Astronomy

Aug. 23, 2012 Rise Set
Actual Time 6:57 AM EDT 7:58 PM EDT
Civil Twilight 6:33 AM EDT 8:23 PM EDT
Nautical Twilight 6:03 AM EDT 8:52 PM EDT
Astronomical Twilight 5:33 AM EDT 9:22 PM EDT
Moon 1:10 PM EDT (8/23) No Moon Set
Length of Visible Light 13h 50m
Length of Day
13h 00m
Waxing Crescent, 40% of the Moon is Illuminated
Aug 23
Waxing Crescent
Aug 24
First Quarter
Aug 31
Full
Sep 8
Last Quarter
Sep 15
New

Hourly Weather History & Observations

Time (EDT) Temp. Heat Index Dew Point Humidity Pressure Visibility Wind Dir Wind Speed Gust Speed Precip Events Conditions
12:53 AM 75.9 °F - 73.0 °F 91% 30.06 in 10.0 mi South 5.8 mph - 0.00 in   Clear
1:14 AM 75.2 °F - 73.4 °F 94% 30.06 in 10.0 mi South 3.5 mph - N/A   Scattered Clouds
1:53 AM 75.9 °F - 73.0 °F 91% 30.05 in 10.0 mi SW 5.8 mph - N/A   Clear
2:53 AM 75.0 °F - 72.0 °F 90% 30.04 in 10.0 mi SSW 4.6 mph - N/A   Clear
3:53 AM 75.0 °F - 72.0 °F 90% 30.04 in 10.0 mi Calm Calm - N/A   Scattered Clouds
4:35 AM 75.2 °F - 71.6 °F 89% 30.04 in 9.0 mi Calm Calm - N/A   Mostly Cloudy
4:53 AM 75.0 °F - 72.0 °F 90% 30.04 in 10.0 mi SSW 3.5 mph - N/A   Mostly Cloudy
5:07 AM 75.2 °F - 71.6 °F 89% 30.04 in 10.0 mi SW 4.6 mph - N/A   Mostly Cloudy
5:18 AM 75.2 °F - 71.6 °F 89% 30.04 in 10.0 mi Calm Calm - N/A   Mostly Cloudy
5:53 AM 75.0 °F - 72.0 °F 90% 30.04 in 10.0 mi Calm Calm - N/A   Clear
6:15 AM 75.2 °F - 71.6 °F 89% 30.05 in 10.0 mi SW 3.5 mph - N/A   Scattered Clouds
6:29 AM 75.2 °F - 71.6 °F 89% 30.05 in 10.0 mi SW 4.6 mph - N/A   Mostly Cloudy
6:50 AM 75.2 °F - 71.6 °F 89% 30.05 in 10.0 mi Calm Calm - N/A   Scattered Clouds
6:53 AM 75.0 °F - 72.0 °F 90% 30.06 in 10.0 mi Calm Calm - N/A   Partly Cloudy
7:53 AM 75.0 °F - 72.0 °F 90% 30.07 in 10.0 mi South 3.5 mph - N/A   Clear
8:44 AM 75.2 °F - 73.4 °F 94% 30.08 in 10.0 mi SSW 3.5 mph - N/A   Scattered Clouds
8:53 AM 75.9 °F - 73.0 °F 91% 30.08 in 10.0 mi SW 3.5 mph - N/A   Scattered Clouds
9:08 AM 77.0 °F - 71.6 °F 83% 30.08 in 10.0 mi Calm Calm - N/A   Mostly Cloudy
9:53 AM 78.1 °F - 72.0 °F 81% 30.10 in 10.0 mi WSW 4.6 mph - N/A   Overcast
10:45 AM 80.6 °F 85.4 °F 73.4 °F 79% 30.11 in 10.0 mi West 6.9 mph - N/A   Mostly Cloudy
10:53 AM 81.0 °F 85.8 °F 73.0 °F 77% 30.11 in 10.0 mi WSW 6.9 mph - N/A   Mostly Cloudy
11:16 AM 80.6 °F 85.4 °F 73.4 °F 79% 30.11 in 10.0 mi West 4.6 mph - 0.00 in   Scattered Clouds
11:28 AM 80.6 °F 84.6 °F 71.6 °F 74% 30.10 in 10.0 mi Calm Calm - 0.00 in   Mostly Cloudy
11:53 AM 81.0 °F 85.2 °F 72.0 °F 74% 30.11 in 10.0 mi WSW 6.9 mph - 0.00 in   Scattered Clouds
12:53 PM 82.0 °F 86.3 °F 71.1 °F 69% 30.11 in 10.0 mi West 5.8 mph - 0.00 in   Mostly Cloudy
1:53 PM 84.9 °F 90.7 °F 72.0 °F 65% 30.08 in 10.0 mi Variable 5.8 mph - N/A   Partly Cloudy
2:53 PM 84.9 °F 89.4 °F 70.0 °F 61% 30.06 in 10.0 mi West 8.1 mph - N/A   Mostly Cloudy
3:53 PM 84.0 °F 88.4 °F 70.0 °F 63% 30.05 in 10.0 mi SSW 3.5 mph - N/A   Mostly Cloudy
4:53 PM 84.0 °F 88.4 °F 70.0 °F 63% 30.05 in 10.0 mi WSW 4.6 mph - N/A   Mostly Cloudy
5:53 PM 84.0 °F 87.8 °F 69.1 °F 61% 30.05 in 10.0 mi NW 8.1 mph - N/A   Scattered Clouds
6:53 PM 81.0 °F 83.3 °F 66.9 °F 62% 30.05 in 10.0 mi WNW 8.1 mph - N/A   Clear
7:38 PM 75.2 °F - 66.2 °F 73% 30.07 in 10.0 mi North 17.3 mph 23.0 mph N/A   Mostly Cloudy
7:53 PM 73.9 °F - 66.0 °F 76% 30.07 in 10.0 mi NNW 12.7 mph - N/A   Mostly Cloudy
8:04 PM 73.4 °F - 64.4 °F 73% 30.07 in 10.0 mi NNW 12.7 mph 18.4 mph N/A   Scattered Clouds
8:53 PM 73.9 °F - 64.9 °F 73% 30.06 in 10.0 mi South 3.5 mph - N/A   Partly Cloudy
9:53 PM 73.9 °F - 66.0 °F 76% 30.06 in 10.0 mi Calm Calm - N/A   Mostly Cloudy
10:53 PM 73.0 °F - 69.1 °F 87% 30.07 in 10.0 mi Calm Calm - 0.00 in   Mostly Cloudy
11:53 PM 72.0 °F - 66.9 °F 84% 30.09 in 10.0 mi NNW 5.8 mph - 0.00 in   Clear